Location: ??
(35.5052°N, 139.7262°E)
Time: 15:49:05
(UTC+00:00)

USA 267 - Pass Details

Date: 20 June 2021
Orbit: 1102 x 1106 km, 123.0° (Epoch: 24 July)

Event Time Altitude Azimuth Distance (km) Brightness Sun altitude
Exits shadow 15:37:38 73° 146° (SE) 1,146 3.1 -29.6°
Maximum altitude 15:38:21 87° 225° (SW) 1,106 3.1 -29.6°
Drops below altitude 10° 15:44:55 10° 316° (NW) 2,962 5.8 -29.2°
Sets 15:47:24 0° 317° (NW) 3,923 6.5 -29.1°
